Preview of NWS' New Version of Forecast
This preview is not operational and should not be used for support decisions.

Regional Weather Roundup (RWR)

Issued by National Weather Service (NWS)

                            
000
ASCA42 TJSJ 200410
RWRPR 
PUERTO RICO/U.S. VIRGIN ISLANDS HOURLY WEATHER ROUNDUP
NATIONAL WEATHER SERVICE SAN JUAN PR
1200 AM AST WED FEB 20 2019

PRZ001>002-007>008-010-200500-
PUERTO RICO
  
CITY           SKY/WX    TMP DP  RH WIND       PRES   REMARKS
SAN JUAN LMM   PTCLDY    75  66  73 SE5       30.13S                  
AGUADILLA      CLEAR     72  63  73 E5        30.15S                  
CEIBA          PTCLDY    75  68  78 E12       30.14F                  
$$

VIZ001>002-200500-
U.S. VIRGIN ISLANDS
  
CITY           SKY/WX    TMP DP  RH WIND       PRES   REMARKS
CHARLOTTE AMA  CLEAR     75  66  73 NE12      30.12S                  
CHRISTIANSTED  CLOUDY    79  70  73 NE13      30.12F                  
$$

HOURLY WEATHER ROUNDUP FOR THE NEWS MEDIA
  
CITY           SKY/WX    TMP DP  RH WIND       PRES   REMARKS
ORLANDO        FAIR      72  68  87 E8        30.18S                  
NEW YORK       CLOUDY    31   9  39 NW10      30.61S WCI  22          
NEWARK         CLOUDY    30   5  34 N10       30.60S WCI  21          
CHICAGO        CLOUDY    30  21  69 E9        30.38F WCI  22          
HARTFORD       FAIR      24   6  46 NW6       30.56S WCI  17          
BOSTON         CLOUDY    25   4  40 W10       30.56F WCI  15          
DALLAS         CLOUDY    40  37  89 NW7       29.94R                  
PHILADELPHIA   CLOUDY    32   7  35 N6        30.61F WCI  26          
LOS ANGELES    CLEAR     51  34  52 W9        30.12R                  
WASHINGTON DC  CLOUDY    32  19  58 CALM      30.59R